Location: Zagreb
(45.8000°N, 16.0000°E)
Time: 19:39:16
(UTC+02:00)

SR - Pass Details

Date: 12 August 2020
Orbit: 583 x 873 km, 66.7° (Epoch: 28 September)

Event Time Altitude Azimuth Distance (km) Brightness Sun altitude
Rises 07:51:39 0° 314° (NW) 2,841 ? 19.3°
Reaches altitude 10° 07:54:13 10° 299° (WNW) 1,959 ? 19.8°
Maximum altitude 07:57:37 22° 249° (WSW) 1,366 ? 20.4°
Drops below altitude 10° 08:01:09 10° 198° (SSW) 2,049 ? 21.0°
Sets 08:03:55 0° 184° (S) 3,008 ? 21.5°
